9M2IBR-1 Weather Reports


Display with metric or nautical units.
time (UTC)temp
F
wind
direction
speed
MPH
gust
MPH
rain 1hr
in
rain 24hr
in
rain mn
in
humidity
%
barometer
mb
20260506190529 78 0.0 0.0 0.00 0.08 0.00 99 1006.6
20260506190026 78 0.0 0.0 0.00 0.08 0.00 99 1006.7
20260506185525 78 0.0 0.0 0.00 0.08 0.00 99 1006.8
20260506185043 78 0.0 0.0 0.00 0.08 0.00 99 1006.9
20260506184541 78 0.0 0.0 0.00 0.08 0.00 99 1006.9
20260506184019 79 0.0 0.0 0.00 0.08 0.00 99 1007.1
20260506183517 79 0.0 0.0 0.00 0.08 0.00 98 1007.1
20260506183030 79 0.0 0.0 0.00 0.08 0.00 98 1007.2
20260506182533 79 0.0 0.0 0.00 0.08 0.00 98 1007.1
20260506182046 79 0.0 0.0 0.00 0.08 0.00 98 1007.2
20260506181524 79 0.0 0.0 0.00 0.08 0.00 98 1007.2
20260506181028 79 0.0 0.0 0.00 0.08 0.00 98 1007.2
20260506180520 79 0.0 0.0 0.00 0.08 0.00 98 1007.1
20260506180018 79 0.0 0.0 0.00 0.08 0.00 98 1007.1
20260506175516 79 0.0 0.0 0.00 0.08 0.00 98 1007.2
20260506175034 79 0.0 0.0 0.00 0.08 0.00 98 1007.1
20260506174527 79 0.0 0.0 0.00 0.08 0.00 98 1007.2
20260506174025 79 0.0 0.0 0.00 0.08 0.00 98 1007.2
20260506173645 79 0.0 0.0 0.00 0.08 0.00 98 1007.3
20260506173021 79 0.0 0.0 0.00 0.08 0.00 98 1007.4
20260506172519 79 0.0 0.0 0.00 0.08 0.00 97 1007.4
20260506172017 79 0.0 0.0 0.00 0.08 0.00 97 1007.5
20260506171550 79 0.0 0.0 0.00 0.08 0.00 97 1007.5
20260506171109 79 0.0 2.0 0.00 0.08 0.00 97 1007.6
20260506170525 79 147 0.0 2.0 0.00 0.08 0.00 97 1007.7
20260506170038 80 0.0 0.0 0.00 0.08 0.00 97 1007.8
20260506165521 79 0.0 0.0 0.00 0.08 0.00 97 1007.7
20260506165019 80 113 0.0 2.0 0.00 0.08 0.00 97 1007.9
20260506164517 79 138 1.0 2.0 0.00 0.08 0.00 97 1008.0
20260506164030 79 123 0.0 2.0 0.00 0.08 0.00 97 1008.1
20260506163528 79 113 0.0 2.0 0.00 0.08 0.00 97 1008.1
20260506163025 79 113 0.0 2.0 0.00 0.08 0.00 97 1008.3
20260506162544 79 101 1.0 4.0 0.00 0.08 0.00 97 1008.5
20260506162042 80 112 1.0 4.0 0.00 0.08 0.00 97 1008.6
20260506161519 80 98 1.0 4.0 0.00 0.08 0.00 97 1008.7
20260506161038 80 110 2.0 4.0 0.00 0.08 0.00 97 1008.9
20260506160516 80 117 1.0 4.0 0.00 0.08 0.00 97 1008.9
20260506160034 80 146 0.0 2.0 0.00 0.08 0.00 97 1008.9
20260506155527 80 137 0.0 2.0 0.00 0.08 0.08 97 1009.0
20260506155045 80 40 1.0 4.0 0.00 0.08 0.08 97 1009.1
20260506154523 80 102 0.0 2.0 0.00 0.08 0.08 97 1009.0
20260506154021 80 96 0.0 2.0 0.00 0.08 0.08 97 1008.9
20260506153539 80 115 1.0 4.0 0.00 0.08 0.08 97 1009.0
20260506153017 80 113 0.0 2.0 0.00 0.08 0.08 97 1009.0
20260506152536 80 54 1.0 4.0 0.00 0.08 0.08 97 1008.9
20260506152029 80 109 1.0 2.0 0.00 0.08 0.08 97 1008.9
20260506151526 80 0.0 0.0 0.00 0.08 0.08 97 1008.8
20260506151051 80 0.0 0.0 0.00 0.08 0.08 97 1008.9
20260506150523 80 0.0 0.0 0.00 0.08 0.08 97 1008.8
20260506150023 80 135 0.0 2.0 0.00 0.08 0.08 97 1008.8
20260506145518 80 0.0 2.0 0.00 0.08 0.08 97 1008.7
20260506145030 80 87 0.0 2.0 0.00 0.08 0.08 97 1008.7
20260506144528 80 90 0.0 2.0 0.00 0.08 0.08 97 1008.5
20260506144027 80 0.0 0.0 0.00 0.08 0.08 97 1008.4
20260506143529 80 0.0 0.0 0.00 0.08 0.08 97 1008.4
20260506143022 80 0.0 2.0 0.00 0.08 0.08 97 1008.4
20260506142520 80 126 0.0 2.0 0.00 0.08 0.08 97 1008.3
20260506142038 80 113 0.0 2.0 0.00 0.08 0.08 97 1008.2
20260506141537 80 113 0.0 2.0 0.00 0.08 0.08 96 1008.1
20260506141034 80 0.0 0.0 0.00 0.08 0.08 96 1008.2
20260506140527 80 0.0 0.0 0.00 0.08 0.08 96 1008.0
20260506140050 80 113 0.0 2.0 0.00 0.08 0.08 96 1007.9
20260506135523 80 90 0.0 2.0 0.00 0.08 0.08 96 1008.0
20260506135021 80 111 0.0 2.0 0.00 0.08 0.08 96 1007.9
20260506134539 80 95 0.0 2.0 0.00 0.08 0.08 96 1008.0
20260506134017 81 101 1.0 4.0 0.00 0.08 0.08 96 1007.9
20260506133530 81 118 1.0 4.0 0.00 0.08 0.08 96 1007.8
20260506133028 81 119 1.0 4.0 0.00 0.08 0.08 96 1007.6
20260506132526 81 113 1.0 2.0 0.00 0.08 0.08 96 1007.4
20260506132025 81 99 1.0 4.0 0.00 0.08 0.08 95 1007.3
20260506131547 81 135 1.0 2.0 0.00 0.08 0.08 95 1007.2
20260506131020 81 108 1.0 4.0 0.00 0.08 0.08 95 1007.2
20260506130538 81 99 2.0 4.0 0.00 0.08 0.08 94 1007.1
20260506130017 82 108 2.0 4.0 0.00 0.08 0.08 94 1006.9
20260506125529 82 126 1.0 4.0 0.00 0.08 0.08 93 1006.6
20260506125027 82 113 1.0 2.0 0.00 0.08 0.08 93 1006.6
20260506124525 82 113 1.0 2.0 0.00 0.08 0.08 92 1006.5
20260506124023 82 113 1.0 2.0 0.00 0.08 0.08 92 1006.5
20260506123531 82 113 0.0 2.0 0.00 0.08 0.08 91 1006.5
20260506123019 82 0.0 0.0 0.00 0.08 0.08 91 1006.4
20260506122537 83 0.0 0.0 0.00 0.08 0.08 90 1006.3
20260506122030 83 0.0 0.0 0.00 0.08 0.08 90 1006.3
20260506121533 83 0.0 0.0 0.00 0.08 0.08 90 1006.2
20260506121046 83 0.0 0.0 0.00 0.08 0.08 89 1005.9
20260506120523 83 0.0 0.0 0.00 0.08 0.08 90 1005.8
20260506120027 83 0.0 0.0 0.00 0.08 0.08 89 1005.9
20260506115520 83 0.0 0.0 0.00 0.08 0.08 89 1005.9
20260506115018 83 0.0 0.0 0.00 0.08 0.08 89 1005.9
20260506114516 84 0.0 0.0 0.00 0.08 0.08 89 1005.9
20260506114034 84 0.0 0.0 0.00 0.08 0.08 89 1006.0
20260506113527 84 0.0 0.0 0.00 0.08 0.08 88 1005.9
20260506113025 84 0.0 0.0 0.00 0.08 0.08 88 1005.9
20260506112523 84 0.0 0.0 0.00 0.08 0.08 87 1005.9
20260506112021 84 0.0 0.0 0.00 0.08 0.08 87 1006.0
20260506111519 84 0.0 0.0 0.00 0.08 0.08 87 1006.0
20260506111017 84 0.0 0.0 0.00 0.08 0.08 86 1006.0
20260506110530 84 0.0 0.0 0.00 0.08 0.08 86 1006.0
20260506110033 84 0.0 0.0 0.00 0.08 0.08 86 1005.8
20260506105526 84 0.0 0.0 0.00 0.08 0.08 87 1005.7
20260506105024 84 0.0 0.0 0.00 0.08 0.08 87 1005.7
20260506104522 85 0.0 0.0 0.00 0.08 0.08 86 1005.6
20260506104025 85 0.0 0.0 0.00 0.08 0.08 86 1005.7
20260506103518 85 0.0 0.0 0.00 0.08 0.08 86 1005.5
20260506103016 85 0.0 0.0 0.00 0.08 0.08 86 1005.4
20260506102529 85 0.0 0.0 0.00 0.08 0.08 85 1005.5
20260506102032 85 0.0 0.0 0.00 0.08 0.08 85 1005.5
20260506101525 85 0.0 0.0 0.00 0.08 0.08 86 1005.5
20260506101043 85 0.0 0.0 0.00 0.08 0.08 85 1005.5
20260506100601 85 0.0 0.0 0.00 0.08 0.08 84 1005.5
20260506100018 86 0.0 0.0 0.00 0.08 0.08 83 1005.5
20260506095516 86 0.0 0.0 0.00 0.08 0.08 83 1005.4
20260506095029 86 180 0.0 2.0 0.00 0.08 0.08 83 1005.3
20260506094527 86 180 0.0 2.0 0.00 0.08 0.08 83 1005.3
20260506094046 86 0.0 2.0 0.00 0.08 0.08 84 1005.2
20260506093523 86 0.0 2.0 0.00 0.08 0.08 83 1005.2
20260506093022 85 255 0.0 2.0 0.00 0.08 0.08 83 1005.4
20260506092520 86 347 0.0 2.0 0.00 0.08 0.08 83 1005.3
20260506092038 86 0.0 2.0 0.00 0.08 0.08 83 1005.6
20260506091530 86 158 0.0 2.0 0.00 0.08 0.08 83 1005.5
20260506091028 86 151 0.0 2.0 0.00 0.08 0.08 82 1005.4
20260506090526 87 0.0 2.0 0.00 0.08 0.08 82 1005.4
20260506090024 87 290 0.0 4.0 0.00 0.08 0.08 81 1005.3
20260506085522 87 203 0.0 2.0 0.00 0.08 0.08 81 1005.3
20260506085020 87 211 0.0 4.0 0.00 0.08 0.08 80 1005.1
20260506084518 87 113 0.0 2.0 0.00 0.08 0.08 80 1005.2
20260506084016 88 305 0.0 4.0 0.00 0.08 0.08 79 1005.2
20260506083530 88 338 0.0 4.0 0.00 0.08 0.08 79 1005.1
20260506083027 88 304 0.0 4.0 0.00 0.08 0.08 78 1005.1
20260506082605 88 13 1.0 4.0 0.00 0.08 0.08 78 1004.8
20260506082023 88 321 1.0 4.0 0.00 0.08 0.08 79 1004.7
20260506081521 88 294 2.0 4.0 0.00 0.08 0.08 79 1004.6
20260506081019 88 331 2.0 7.0 0.00 0.08 0.08 78 1004.8
20260506080517 88 347 1.0 4.0 0.00 0.08 0.08 78 1005.1
20260506073018 88 309 2.0 6.0 0.00 0.08 0.08 79 1005.1
20260506072516 87 357 1.0 4.0 0.00 0.08 0.08 79 1005.3
20260506072029 87 331 3.0 8.0 0.00 0.08 0.08 80 1005.4
20260506071527 88 338 2.0 6.0 0.00 0.08 0.08 80 1005.4
20260506071025 88 274 0.0 4.0 0.00 0.08 0.08 80 1005.6
20260506070528 88 280 1.0 4.0 0.00 0.08 0.08 79 1005.7
20260506062025 88 299 1.0 4.0 0.00 0.08 0.08 80 1006.8
20260506061538 88 320 1.0 4.0 0.00 0.08 0.08 80 1007.0
20260506061016 87 235 1.0 4.0 0.00 0.08 0.08 80 1007.1
20260506060529 87 261 1.0 4.0 0.00 0.08 0.08 81 1007.1
20260506051022 87 337 0.0 4.0 0.00 0.08 0.08 83 1008.1
20260506050520 87 122 0.0 4.0 0.00 0.08 0.08 83 1008.3
20260506045029 86 0.0 2.0 0.04 0.08 0.08 85 1008.4
20260506044607 86 200 1.0 2.0 0.08 0.08 0.08 86 1008.4
20260506044025 85 0.0 2.0 0.08 0.08 0.08 89 1008.4
20260506043523 84 270 0.0 2.0 0.08 0.08 0.08 92 1008.4
20260506043041 84 308 0.0 2.0 0.08 0.08 0.08 93 1008.5
20260506042519 84 0.0 2.0 0.08 0.08 0.08 94 1008.5
20260506042017 84 270 0.0 2.0 0.08 0.08 0.08 94 1008.6
20260506041530 84 293 0.0 2.0 0.08 0.08 0.08 94 1008.8
20260506041028 83 180 0.0 2.0 0.08 0.08 0.08 94 1008.7
20260506040526 83 188 0.0 2.0 0.08 0.08 0.08 93 1008.8
20260506040028 84 293 0.0 4.0 0.07 0.07 0.07 92 1008.9
20260506035522 84 200 1.0 4.0 0.05 0.05 0.05 91 1009.1
20260506035020 84 257 1.0 2.0 0.05 0.05 0.05 89 1009.0
20260506034517 84 130 1.0 4.0 0.00 0.00 0.00 88 1009.1
20260506034015 83 113 0.0 4.0 0.00 0.00 0.00 89 1009.2
20260506033528 82 280 1.0 4.0 0.00 0.00 0.00 89 1009.2
20260506033026 83 321 1.0 6.0 0.00 0.00 0.00 88 1009.3
20260506032524 84 356 1.0 4.0 0.00 0.00 0.00 87 1009.3
20260506032022 85 113 0.0 4.0 0.00 0.00 0.00 86 1009.3
20260506031520 86 159 1.0 4.0 0.00 0.00 0.00 85 1009.4
20260506031018 89 145 1.0 6.0 0.00 0.00 0.00 80 1009.4
20260506030516 91 113 0.0 2.0 0.00 0.00 0.00 78 1009.2
20260506030030 90 88 0.0 2.0 0.00 0.00 0.00 79 1009.2
20260506025527 89 15 0.0 2.0 0.00 0.00 0.00 81 1009.2
20260506025025 89 331 1.0 4.0 0.00 0.00 0.00 81 1009.2
20260506024523 89 108 1.0 2.0 0.00 0.00 0.00 82 1009.3
20260506024022 88 16 1.0 2.0 0.00 0.00 0.00 82 1009.4
20260506023519 88 82 1.0 4.0 0.00 0.00 0.00 84 1009.3
20260506023017 87 61 1.0 4.0 0.00 0.00 0.00 85 1009.3
20260506022530 87 84 1.0 2.0 0.00 0.00 0.00 85 1009.4
20260506022028 87 92 1.0 4.0 0.00 0.00 0.00 85 1009.4
20260506021526 86 102 1.0 4.0 0.00 0.00 0.00 85 1009.4
20260506021024 86 118 1.0 4.0 0.00 0.00 0.00 85 1009.4
20260506020522 86 118 0.0 2.0 0.00 0.00 0.00 85 1009.3
20260506020020 86 83 1.0 4.0 0.00 0.00 0.00 86 1009.2
20260506015548 85 77 1.0 4.0 0.00 0.00 0.00 87 1009.1
20260506015021 85 47 0.0 2.0 0.00 0.00 0.00 87 1009.2
20260506014529 85 104 0.0 2.0 0.00 0.00 0.00 86 1009.2
20260506014027 85 119 1.0 2.0 0.00 0.00 0.00 87 1009.3
20260506013525 84 68 1.0 2.0 0.00 0.00 0.00 87 1009.2
20260506013023 84 0.0 0.0 0.00 0.00 0.00 88 1009.2
20260506012521 84 0.0 0.0 0.00 0.00 0.00 88 1009.1
20260506012019 83 0.0 0.0 0.00 0.00 0.00 90 1009.1
20260506011537 83 90 0.0 2.0 0.00 0.00 0.00 91 1009.0
20260506011030 82 81 0.0 2.0 0.00 0.00 0.00 91 1008.9
20260506010608 82 90 0.0 2.0 0.00 0.00 0.00 92 1009.0
20260506010026 82 0.0 2.0 0.00 0.00 0.00 92 1009.0
20260506005523 81 64 0.0 2.0 0.00 0.00 0.00 92 1009.0
20260506005022 81 0.0 2.0 0.00 0.00 0.00 93 1008.9
20260506004520 80 135 0.0 2.0 0.00 0.00 0.00 94 1008.7
20260506004038 80 0.0 2.0 0.00 0.00 0.00 96 1008.4
20260506003516 80 0.0 2.0 0.00 0.00 0.00 96 1008.4
20260506003029 80 0.0 2.0 0.00 0.00 0.00 97 1008.2
20260506002025 79 45 0.0 2.0 0.00 0.00 0.00 98 1008.3
20260506001543 79 331 1.0 2.0 0.00 0.00 0.00 98 1008.2
20260506001026 79 315 0.0 2.0 0.00 0.00 0.00 98 1008.2
20260506000519 79 0.0 0.0 0.00 0.00 0.00 98 1007.9
20260506000017 79 0.0 2.0 0.00 0.00 0.00 98 1008.0
20260505235550 79 293 0.0 2.0 0.00 0.00 0.00 99 1007.9
20260505235048 79 0.0 2.0 0.00 0.00 0.00 99 1007.8
20260505234526 78 118 1.0 2.0 0.00 0.00 0.00 99 1007.7
20260505234029 78 120 0.0 2.0 0.00 0.00 0.00 99 1007.6
20260505233522 78 113 1.0 2.0 0.00 0.00 0.00 99 1007.5
20260505233019 78 0.0 2.0 0.00 0.00 0.00 99 1007.5
20260505232518 78 0.0 0.0 0.00 0.00 0.00 99 1007.5
20260505232015 78 0.0 0.0 0.00 0.00 0.00 99 1007.5
20260505231549 78 0.0 0.0 0.00 0.00 0.00 99 1007.4
20260505231027 78 0.0 0.0 0.00 0.00 0.00 99 1007.3
20260505230525 78 0.0 0.0 0.00 0.00 0.00 99 1007.4
20260505230023 78 0.0 0.0 0.00 0.00 0.00 99 1007.2
20260505225521 78 0.0 2.0 0.00 0.00 0.00 99 1006.9
20260505225020 78 110 1.0 2.0 0.00 0.00 0.00 99 1007.0
20260505224517 78 106 1.0 2.0 0.00 0.00 0.00 99 1007.0
20260505224030 78 113 0.0 2.0 0.00 0.00 0.00 99 1006.9
20260505223548 78 102 0.0 2.0 0.00 0.00 0.00 99 1007.0
20260505223106 78 99 1.0 2.0 0.00 0.00 0.00 99 1007.0
20260505222534 78 101 1.0 2.0 0.00 0.00 0.00 99 1007.1
20260505222022 78 113 1.0 2.0 0.00 0.00 0.00 99 1007.0
20260505221520 78 98 1.0 2.0 0.00 0.00 0.00 99 1006.9
20260505221018 78 112 2.0 4.0 0.00 0.00 0.00 99 1006.8
20260505220516 78 106 2.0 4.0 0.00 0.00 0.00 99 1006.8
20260505220029 78 104 1.0 4.0 0.00 0.00 0.00 99 1006.7
20260505215527 78 109 1.0 4.0 0.00 0.00 0.00 99 1006.7
20260505215025 78 113 0.0 2.0 0.00 0.00 0.00 99 1006.7
20260505214522 78 113 0.0 2.0 0.00 0.00 0.00 99 1006.7
20260505214021 78 0.0 0.0 0.00 0.00 0.00 99 1006.9
20260505213524 78 0.0 0.0 0.00 0.00 0.00 99 1006.8
20260505213017 78 0.0 0.0 0.00 0.00 0.00 98 1006.8
20260505212530 78 0.0 0.0 0.00 0.00 0.00 98 1006.7
20260505212027 78 0.0 0.0 0.00 0.00 0.00 98 1006.7
20260505211531 78 0.0 0.0 0.00 0.00 0.00 98 1006.6
20260505211024 78 0.0 0.0 0.00 0.00 0.00 98 1006.6
20260505210522 78 0.0 0.0 0.00 0.00 0.00 98 1006.6
20260505210020 78 0.0 0.0 0.00 0.00 0.00 98 1006.8
20260505205518 78 0.0 0.0 0.00 0.00 0.00 98 1006.7
20260505205038 78 0.0 0.0 0.00 0.00 0.00 98 1006.6
20260505204529 78 0.0 0.0 0.00 0.00 0.00 98 1006.6
20260505204030 78 90 0.0 2.0 0.00 0.00 0.00 98 1006.5
20260505203528 78 90 0.0 2.0 0.00 0.00 0.00 98 1006.5
20260505203042 78 90 0.0 2.0 0.00 0.00 0.00 98 1006.4
20260505202524 78 102 0.0 2.0 0.00 0.00 0.00 98 1006.6
20260505202043 78 113 0.0 2.0 0.00 0.00 0.00 98 1006.5
20260505201530 78 113 0.0 2.0 0.00 0.00 0.00 98 1006.7
20260505201109 78 123 1.0 2.0 0.00 0.00 0.00 98 1006.7
20260505200526 78 113 0.0 2.0 0.00 0.00 0.00 98 1006.9
20260505200024 78 121 0.0 2.0 0.00 0.00 0.00 98 1007.0
20260505195544 78 94 0.0 2.0 0.00 0.00 0.00 98 1006.8
20260505195020 78 0.0 2.0 0.00 0.00 0.00 98 1006.8
20260505194518 78 0.0 2.0 0.00 0.00 0.00 98 1006.8
20260505194036 78 113 0.0 2.0 0.00 0.00 0.00 98 1006.8
20260505193529 78 158 0.0 2.0 0.00 0.00 0.00 98 1006.9
20260505193027 79 0.0 0.0 0.00 0.00 0.00 98 1006.9
20260505192525 79 0.0 0.0 0.00 0.00 0.00 98 1006.9
20260505192043 79 113 0.0 2.0 0.00 0.00 0.00 98 1007.0
20260505191542 79 90 0.0 2.0 0.00 0.00 0.00 98 1007.2
20260505191020 79 90 0.0 2.0 0.00 0.00 0.00 98 1007.3